Flag for Czech Republic Weather past 2 weeks in Liberec, Czech Republic

Now
52 °F

Cool.


Feels Like: 52 °F
Forecast: 60 / 78 °F
Wind: 1 mph from Southeast

Location: Liberec

Current Time: Aug 1, 2014 at 7:00:06 AM

Latest Report: Aug 1, 2014 at 6:00 AM


Visibility: 4 mi

Pressure: 29.99 "Hg

Humidity: 100%

Dew point: 52 °F

Location of LiberecLocation

Historic Weather in Liberec — Graph

°F

Liberec temperature yesterday

Maximum temperature yesterday: 73 °F (at 6:00 PM)
Minimum temperature yesterday: 56 °F (at 11:00 PM)
Average temperature yesterday: 65 °F

Past Weeks' High & Low Weather Summary

 TemperatureHumidityPressure
High89 °F (Jul 20, 5:00 PM)100% (Jul 18, 5:00 AM)30.19 "Hg (Jul 18, 5:00 AM)
Low52 °F (Aug 1, 5:00 AM)29% (Jul 23, 6:00 PM)29.68 "Hg (Jul 29, 6:00 PM)
Average70 °F72%29.91 "Hg
* Reported Jul 17 5:00 AM — Aug 1 5:00 AM, Liberec, Weather by CustomWeather, © 2014

Note: Actual official high and low records may vary slightly from our data, if they occured in-between our weather recording intervals... More about our weather records

Advertising

Liberec weather history for previous 24 hours

 ConditionsComfort  
Time TempWeatherWind HumidityBarometerVisibility
5:00 AM
Aug 1
52 °FRain showers. Overcast.No wind100%30.00 "Hg0 mi
4:00 AM53 °FDrizzle. Overcast.No wind99%30.00 "Hg0 mi
3:00 AM53 °FRain showers. Overcast.1 mph99%30.00 "Hg2 mi
2:00 AM53 °FRain showers. Overcast.No wind99%30.00 "Hg1 mi
1:00 AM54 °FFog.No wind98%30.00 "Hg2 mi
12:00 AM55 °FCool.No wind94%30.00 "Hg11 mi
11:00 PM
Jul 31
56 °FCool.No wind89%29.99 "Hg12 mi
10:00 PM59 °FPassing clouds.1 mph82%29.98 "Hg14 mi
9:00 PM62 °FPassing clouds.No wind74%29.97 "Hg16 mi
8:00 PM70 °FScattered clouds.1 mph57%29.93 "Hg19 mi
7:00 PM72 °FScattered clouds.2 mph52%29.91 "Hg19 mi
6:00 PM73 °FMild.2 mph52%29.91 "Hg12 mi
5:00 PM72 °FPartly sunny.3 mph55%29.92 "Hg19 mi
4:00 PM72 °FPartly sunny.5 mph56%29.92 "Hg17 mi
3:00 PM71 °FPartly sunny.3 mph61%29.92 "Hg16 mi
2:00 PM68 °FOvercast.2 mph69%29.93 "Hg16 mi
1:00 PM66 °FOvercast.3 mph74%29.93 "Hg14 mi
12:00 PM67 °FOvercast.2 mph76%29.93 "Hg12 mi
11:00 AM65 °FOvercast.2 mph83%29.93 "Hg6 mi
10:00 AM64 °FFog.2 mph90%29.92 "Hg5 mi
9:00 AM62 °FFog.3 mph93%29.91 "Hg4 mi
8:00 AM62 °FOvercast.3 mph95%29.89 "Hg3 mi
7:00 AM62 °FDrizzle. Cloudy.2 mph96%29.88 "Hg2 mi
Weather by CustomWeather, © 2014

See weather overviewHow to use our weather pages